User: anonymous   Login
Location: Unspecified
(0.0000°N, 0.0000°E)
Time: 13:13:49
(UTC+00:00)
Language:

NEE 01 PEGASUS - Orbit

View from above orbital plane
View from above orbital plane
View from above satellite
View from above satellite

Ground track
Ground track

The orbit data is extracted from the following two-line orbital elements,

1 39151U 13018B   21016.20270149  .00000167  00000-0  28810-4 0  9994
2 39151  97.9763 119.6270 0018108 128.9304 231.3525 14.80270989417150
Epoch (UTC): 16 January 2021 04:51:53
Eccentricity: 0.0018108
inclination: 97.9763°
perigee height: 616 km
apogee height: 641 km
right ascension of ascending node: 119.6270°
argument of perigee: 128.9304°
revolutions per day: 14.80270989
mean anomaly at epoch: 231.3525°
orbit number at epoch: 41715

The dashed part of the orbit path shows where the satellite is in the earth's shadow,  

DLR